This is the latest recevied weather packets stored in our database for station/object EW8324. If no packets are shown the sender has not sent any weather packets the latest 10 day(s).
| Time | Temp. | Humidity | Pressure | Rain* | Wind** | Luminosity | Snow |
|---|---|---|---|---|---|---|---|
| 1777920608 | - | - | 1009.3 hPa | 0.25 mm | - | - | - |
| 1777920373 | 28.33° C | 53% | 1009.3 hPa | 0.25 mm | - | - | - |
| 1777920008 | 28.33° C | 53% | 1009.5 hPa | 0.25 mm | - | - | - |
| 1777919706 | - | - | 1009.5 hPa | 0 mm | - | - | - |
| 1777919408 | 28.33° C | 52% | 1009.5 hPa | 0 mm | - | - | - |
| 1777919104 | - | - | 1009.6 hPa | 0 mm | - | - | - |
| 1777918806 | - | - | 1009.5 hPa | 0 mm | - | - | - |
| 1777918502 | 28.33° C | 52% | 1009.7 hPa | 0 mm | - | - | - |
| 1777918264 | 28.33° C | 52% | 1009.9 hPa | 0 mm | - | 375 W/m² | - |
| 1777917900 | 28.33° C | 53% | 1009.9 hPa | 0 mm | - | 1000 W/m² | - |
| 1777917604 | 28.33° C | 52% | 1009.8 hPa | 0 mm | - | 492 W/m² | - |
| 1777917297 | 27.78° C | 53% | 1010 hPa | 0 mm | - | 981 W/m² | - |
| 1777917001 | 27.22° C | 55% | 1010 hPa | 0 mm | - | 1018 W/m² | - |
| 1777916763 | 27.22° C | 56% | 1010.1 hPa | 0 mm | - | 948 W/m² | - |
| 1777916405 | 26.67° C | 56% | 1010.1 hPa | 0 mm | - | 995 W/m² | - |
| 1777916100 | 26.67° C | 58% | 1010.2 hPa | 0 mm | - | 795 W/m² | - |
| 1777915803 | 26.67° C | 54% | 1010.2 hPa | 0 mm | - | 237 W/m² | - |
| 1777915504 | 27.22° C | 54% | 1010.4 hPa | 0 mm | - | 816 W/m² | - |
| 1777915204 | 27.22° C | 54% | 1010.4 hPa | 0 mm | - | 422 W/m² | - |
| 1777914900 | 27.22° C | 52% | 1010.6 hPa | 0 mm | - | 856 W/m² | - |
| 1777914597 | 27.22° C | 55% | 1010.7 hPa | 0 mm | - | 962 W/m² | - |
| 1777914360 | 27.22° C | 56% | 1010.6 hPa | 0 mm | - | 876 W/m² | - |
| 1777914004 | 26.67° C | 55% | 1010.6 hPa | 0 mm | - | 976 W/m² | - |
| 1777913701 | 26.67° C | 56% | 1010.8 hPa | 0 mm | - | 914 W/m² | - |
| 1777913463 | 26.67° C | 57% | 1011 hPa | 0 mm | - | 897 W/m² | - |
* Rain latest hour (hover to see other rain measurements)
** Current wind speed in m/s (hover to see current wind gust speed)